Weather History for Montague, CA

Change the Weather History Date:

Monday, November 19, 2012

  Actual Average Record
Temperature  
Mean Temperature 50 °F 38 °F  
Max Temperature 55 °F 48 °F 66 °F (1987)
Min Temperature 45 °F 28 °F 15 °F (1994)
Degree Days  
Heating Degree Days 15 27  
Month to date heating degree days 395 444  
Since 1 July heating degree days 750 997  
Cooling Degree Days 0 0  
Month to date cooling degree days 0 0  
Year to date cooling degree days 622 544  
Moisture  
Dew Point 35 °F    
Average Humidity 57    
Maximum Humidity 62    
Minimum Humidity 50    
Precipitation  
Precipitation T in 0.11 in 1.31 in (1996)
Month to date precipitation 0.22 1.74  
Year to date precipitation 8.71 14.58  
Sea Level Pressure  
Sea Level Pressure 29.98 in    
Wind  
Wind Speed 30 mph (South)    
Max Wind Speed 41 mph    
Max Gust Speed 52 mph    
Visibility 10 miles    
Events      
T = Trace of Precipitation, MM = Missing Value Source: NWS Daily Summary

Daily Weather History Graph

Daily Weather History Graph

Search for Another Location

Airport:

Trip Planner

Search our weather history database for the weather conditions in past years. The results will help you decide how hot, cold, wet, or windy it might be!

Date:

Astronomy

Nov. 19, 2012 Rise Set
Actual Time 7:04 AM PST 4:45 PM PST
Civil Twilight 6:34 AM PST 5:15 PM PST
Nautical Twilight 6:00 AM PST 5:49 PM PST
Astronomical Twilight 5:27 AM PST 6:22 PM PST
Moon 12:08 PM PST (11/19) 11:21 PM PST (11/19)
Length of Visible Light 10h 41m
Length of Day
9h 40m
Waxing Crescent, 42% of the Moon is Illuminated
Nov 19
Waxing Crescent
Nov 20
First Quarter
Nov 28
Full
Dec 6
Last Quarter
Dec 13
New

Hourly Weather History & Observations

Time (PST) Temp. Windchill Dew Point Humidity Pressure Visibility Wind Dir Wind Speed Gust Speed Precip Events Conditions
12:53 AM 45.0 °F 36.0 °F 32.0 °F 60% 30.06 in 10.0 mi South 25.3 mph 32.2 mph N/A   Mostly Cloudy
1:53 AM 45.0 °F 36.9 °F 32.0 °F 60% 30.05 in 10.0 mi South 20.7 mph 32.2 mph N/A   Overcast
2:53 AM 45.0 °F 36.2 °F 32.0 °F 60% 30.04 in 10.0 mi South 24.2 mph 29.9 mph N/A   Mostly Cloudy
3:53 AM 46.0 °F 37.8 °F 32.0 °F 58% 30.02 in 10.0 mi South 23.0 mph 32.2 mph N/A   Mostly Cloudy
4:53 AM 46.0 °F 37.4 °F 33.1 °F 61% 30.03 in 10.0 mi South 25.3 mph 32.2 mph N/A   Overcast
5:53 AM 46.9 °F - 33.1 °F 59% 30.03 in 10.0 mi South 25.3 mph 32.2 mph N/A   Overcast
6:53 AM 46.9 °F - 33.1 °F 59% 30.01 in 10.0 mi South 25.3 mph 34.5 mph N/A   Mostly Cloudy
7:53 AM 48.0 °F - 33.1 °F 56% 30.03 in 10.0 mi South 27.6 mph 32.2 mph N/A   Overcast
8:53 AM 48.9 °F - 35.1 °F 59% 30.03 in 10.0 mi South 23.0 mph 33.4 mph 0.00 in   Overcast
9:53 AM 50.0 °F - 34.0 °F 54% 30.04 in 10.0 mi South 27.6 mph 33.4 mph N/A   Overcast
10:53 AM 53.1 °F - 35.1 °F 50% 30.01 in 10.0 mi South 24.2 mph 34.5 mph N/A   Partly Cloudy
11:53 AM 52.0 °F - 35.1 °F 53% 29.99 in 10.0 mi South 34.5 mph 41.4 mph N/A   Overcast
12:53 PM 54.0 °F - 36.0 °F 51% 29.96 in 10.0 mi South 32.2 mph 42.6 mph 0.00 in   Scattered Clouds
1:53 PM 53.1 °F - 35.1 °F 50% 29.94 in 10.0 mi South 32.2 mph 43.7 mph N/A   Partly Cloudy
2:53 PM 52.0 °F - 36.0 °F 54% 29.92 in 10.0 mi SSE 38.0 mph 46.0 mph N/A   Clear
3:53 PM 52.0 °F - 36.0 °F 54% 29.92 in 10.0 mi South 38.0 mph 47.2 mph N/A   Clear
4:53 PM 51.1 °F - 37.0 °F 59% 29.93 in 10.0 mi South 32.2 mph 42.6 mph N/A   Clear
5:53 PM 51.1 °F - 37.0 °F 59% 29.92 in 10.0 mi South 39.1 mph 50.6 mph N/A   Mostly Cloudy
7:53 PM 53.1 °F - 39.0 °F 59% 29.91 in 10.0 mi South 36.8 mph 44.9 mph N/A   Overcast
8:53 PM 53.1 °F - 39.0 °F 59% 29.91 in 10.0 mi SSE 34.5 mph 49.5 mph N/A   Overcast
9:53 PM 53.1 °F - 39.9 °F 61% 29.92 in 10.0 mi South 27.6 mph 42.6 mph N/A   Overcast
10:53 PM 53.1 °F - 39.0 °F 59% 29.90 in 10.0 mi South 36.8 mph 48.3 mph N/A   Overcast
11:53 PM 52.0 °F - 39.0 °F 61% 29.91 in 10.0 mi South 34.5 mph 46.0 mph N/A   Partly Cloudy